Flag for Norway Weather past 2 weeks in Lillestrøm, Norway

Now
74 °F

Overcast.


Feels Like: 77 °F
Forecast: 55 / 68 °F
Wind: 7 mph from Southwest

Location: Oslo-Blindern

Current Time: Jul 31, 2014 at 3:19:40 PM

Latest Report: Jul 31, 2014 at 2:00 PM


Visibility: 47 mi

Pressure: 29.63 "Hg

Humidity: 39%

Dew point: 48 °F

Location of LillestrømLocation

Historic Weather in Lillestrøm — Graph

°F

Lillestrøm temperature yesterday

Maximum temperature yesterday: 79 °F (at 3:00 PM)
Minimum temperature yesterday: 63 °F (at 3:00 AM)
Average temperature yesterday: 70 °F

Past Weeks' High & Low Weather Summary

 TemperatureHumidityPressure
High90 °F (Jul 24, 2:00 PM)96% (Jul 18, 12:00 AM)30.31 "Hg (Jul 18, 12:00 AM)
Low52 °F (Jul 18, 5:00 AM)23% (Jul 23, 6:00 PM)29.57 "Hg (Jul 30, 7:00 PM)
Average72 °F62%30.02 "Hg
* Reported Jul 16 2:00 PM — Jul 31 2:00 PM, Lillestrøm, Weather by CustomWeather, © 2014

Note: Actual official high and low records may vary slightly from our data, if they occured in-between our weather recording intervals... More about our weather records

Advertising

Lillestrøm weather history for previous 24 hours

 ConditionsComfort  
Time TempWeatherWind HumidityBarometerVisibility
2:00 PM
Jul 31
74 °FOvercast.7 mph39%29.63 "Hg47 mi
1:00 PM75 °FMild.6 mph42%29.62 "HgN/A
12:00 PM74 °FMild.5 mph43%29.63 "HgN/A
11:00 AM71 °FPartly sunny.3 mph45%29.63 "Hg47 mi
10:00 AM71 °FMild.3 mph51%29.63 "HgN/A
9:00 AM69 °FMild.5 mph52%29.63 "HgN/A
8:00 AM65 °FPassing clouds.5 mph58%29.63 "Hg47 mi
7:00 AM59 °FCool.1 mph67%29.63 "HgN/A
6:00 AM56 °FCool.2 mph73%29.63 "HgN/A
5:00 AM56 °FPassing clouds.1 mph73%29.63 "Hg43 mi
4:00 AM58 °FCool.1 mph66%29.62 "HgN/A
3:00 AM58 °FCool.3 mph65%29.62 "HgN/A
2:00 AM59 °FPassing clouds.1 mph65%29.62 "Hg47 mi
1:00 AM62 °FRefreshingly cool.1 mph58%29.61 "HgN/A
12:00 AM63 °FMild.2 mph56%29.61 "HgN/A
11:00 PM
Jul 30
67 °FPassing clouds.3 mph49%29.60 "Hg43 mi
10:00 PM69 °FMild.3 mph44%29.59 "HgN/A
9:00 PM71 °FMild.5 mph52%29.57 "HgN/A
8:00 PM72 °FScattered clouds.6 mph56%29.57 "Hg43 mi
7:00 PM74 °FMild.7 mph50%29.57 "HgN/A
6:00 PM75 °FMild.8 mph47%29.57 "HgN/A
5:00 PM77 °FScattered clouds.7 mph52%29.58 "Hg43 mi
4:00 PM78 °FWarm.7 mph48%29.59 "HgN/A
3:00 PM79 °FWarm.7 mph45%29.59 "HgN/A
Weather by CustomWeather, © 2014

See weather overviewHow to use our weather pages